This is the latest recevied weather packets stored in our database for station/object IZ5MMH-14. If no packets are shown the sender has not sent any weather packets the latest 10 day(s).
| Time | Temp. | Humidity | Pressure | Rain* | Wind** | Luminosity | Snow |
|---|---|---|---|---|---|---|---|
| 1777660209 | 21.11° C | 26% | 1022.8 hPa | - | - | - | - |
| 1777659609 | 22.22° C | 28% | 1022.9 hPa | - | - | - | - |
| 1777659009 | 21.67° C | 26% | 1022.7 hPa | - | - | - | - |
| 1777658409 | 22.22° C | 27% | 1022.5 hPa | - | - | - | - |
| 1777657809 | 22.22° C | 29% | 1022.2 hPa | - | - | - | - |
| 1777657209 | 22.78° C | 25% | 1022.2 hPa | - | - | - | - |
| 1777656609 | 22.78° C | 25% | 1022.2 hPa | - | - | - | - |
| 1777656009 | 22.78° C | 25% | 1022.2 hPa | - | - | - | - |
| 1777655409 | 22.78° C | 26% | 1021.9 hPa | - | - | - | - |
| 1777654809 | 22.78° C | 30% | 1021.8 hPa | - | - | - | - |
| 1777654209 | 22.78° C | 32% | 1021.9 hPa | - | - | - | - |
| 1777653611 | 23.33° C | 37% | 1022 hPa | - | - | - | - |
| 1777653016 | 23.33° C | 36% | 1021.9 hPa | - | - | - | - |
| 1777652409 | 23.33° C | 27% | 1021.8 hPa | - | - | - | - |
| 1777651809 | 23.33° C | 31% | 1021.9 hPa | - | - | - | - |
| 1777651209 | 23.33° C | 30% | 1022 hPa | - | - | - | - |
| 1777650609 | 23.33° C | 33% | 1022.1 hPa | - | - | - | - |
| 1777650009 | 23.33° C | 22% | 1022 hPa | - | - | - | - |
| 1777649409 | 22.78° C | 34% | 1022.1 hPa | - | - | - | - |
| 1777648809 | 22.22° C | 42% | 1022.1 hPa | - | - | - | - |
| 1777648209 | 22.78° C | 34% | 1021.9 hPa | - | - | - | - |
| 1777647609 | 22.78° C | 27% | 1022 hPa | - | - | - | - |
| 1777647009 | 23.33° C | 28% | 1022.1 hPa | - | - | - | - |
| 1777646409 | 22.78° C | 38% | 1022.1 hPa | - | - | - | - |
| 1777645809 | 22.78° C | 30% | 1022.1 hPa | - | - | - | - |
* Rain since midnight (hover to see other rain measurements)
** Current wind speed in m/s (hover to see current wind gust speed)